This demonstration page uses our WeatherBlox Daily Observations layout. Learn more.

Left ArrowRight Arrow

47.50024, -111.30081

Hourly Observations for January 16, 2022

Temp ( °F °C ) Dew Point ( °F °C ) Humidity (%) Winds ( mph kmh ) Pressure ( in mb ) Visibility ( mi km ) Precip ( " mm )
12:53 am 00:53 Clear 37 2.8 21 -6.1 52 52 WSW 14 22 30.09 1019 10 16 0.00 0.00
1:53 am 01:53 Clear 36 2.2 21 -6.1 55 55 SW 15 24 30.12 1020 10 16 0.00 0.00
2:53 am 02:53 Clear 35 1.7 21 -6.1 57 57 SW 14 22 30.16 1021 10 16 0.00 0.00
3:53 am 03:53 Clear 32 0 20 -6.7 61 61 SW 13 20 30.17 1022 10 16 0.00 0.00
4:53 am 04:53 Clear 26 -3.3 18 -7.8 71 71 WSW 7 11 30.22 1023 10 16 0.00 0.00
5:53 am 05:53 Partly Cloudy 29 -1.7 19 -7.2 66 66 W 9 15 30.23 1024 10 16 0.00 0.00
6:53 am 06:53 Clear 30 -1.1 18 -7.8 61 61 W 6 9 30.24 1024 10 16 0.00 0.00
7:53 am 07:53 Clear 27 -2.8 17 -8.3 66 66 SSW 3 6 30.24 1024 10 16 0.00 0.00
8:53 am 08:53 Sunny 31 -0.6 22 -5.6 69 69 SSW 9 15 30.22 1024 10 16 0.00 0.00
9:53 am 09:53 Sunny 36 2.2 22 -5.6 57 57 SSW 8 13 30.20 1023 10 16 0.00 0.00
10:53 am 10:53 Sunny 42 5.6 22 -5.6 45 45 SSW 12 19 30.17 1022 10 16 0.00 0.00
11:53 am 11:53 Sunny 47 8.3 22 -5.6 37 37 SW 15 24 30.11 1020 10 16 0.00 0.00
12:53 pm 12:53 Sunny 49 9.4 20 -6.7 32 32 SW 18 30 30.08 1019 10 16 0.00 0.00
1:53 pm 13:53 Sunny 50 10 20 -6.7 30 30 SW 22 35 30.04 1017 10 16 0.00 0.00
2:53 pm 14:53 Sunny 50 10 20 -6.7 30 30 SW 26 43 30.01 1016 10 16 0.00 0.00
3:53 pm 15:53 Sunny 48 8.9 21 -6.1 34 34 SW 23 37 29.99 1016 10 16 0.00 0.00
4:53 pm 16:53 Sunny 45 7.2 20 -6.7 37 37 SSW 20 31 29.98 1015 10 16 0.00 0.00
5:53 pm 17:53 Clear 45 7.2 21 -6.1 39 39 SW 21 33 29.98 1015 10 16 0.00 0.00
6:53 pm 18:53 Clear 44 6.7 22 -5.6 41 41 SSW 15 24 29.97 1015 10 16 0.00 0.00
7:53 pm 19:53 Clear 48 8.9 23 -5 37 37 WSW 28 44 29.92 1013 10 16 0.00 0.00
8:53 pm 20:53 Clear 47 8.3 24 -4.4 41 41 WSW 21 33 29.91 1013 10 16 0.00 0.00
9:53 pm 21:53 Clear 48 8.9 24 -4.4 39 39 SW 25 41 29.88 1012 10 16 0.00 0.00
10:53 pm 22:53 Clear 48 8.9 24 -4.4 39 39 WSW 25 41 29.87 1011 10 16 0.00 0.00
11:53 pm 23:53 Clear 45 7.2 24 -4.4 44 44 WSW 18 30 29.87 1012 10 16 0.00 0.00

Powered by AerisWeather